Location: Spruce Knob
(38.6995°N, 79.5330°W)
Time: 17:43:37
(UTC-05:00)

BlueWalker 3 - Pass Details

Date: 07 December 2022
Orbit: 499 x 517 km, 53.2° (Epoch: 28 January)

Event Time Altitude Azimuth Distance (km) Brightness Sun altitude
Rises 17:18:53 0° 318° (NW) 2,630 5.8 -4.7°
Reaches altitude 10° 17:22:22 10° 350° (N) 1,735 4.5 -5.3°
Maximum altitude 17:23:57 12° 14° (NNE) 1,604 4.1 -5.6°
Drops below altitude 10° 17:25:33 10° 38° (NE) 1,728 4.1 -5.9°
Enters shadow 17:26:45 - 52° (NE) 1,965 4.3 -6.1°
